Home   Weather   Marengo   Past weeks
Flag for USA

Past Weather in Marengo, Indiana, USA — Yesterday and Last 2 Weeks

Now
88 °F

Clear.


Feels Like: 90 °F
Forecast: 91 / 72 °F
Wind: 3 mph from West

Location: Bowling Green-Warren County Regional Airport

Current Time: Aug 18, 2019 at 9:45:19 pm

Latest Report: Aug 18, 2019 at 8:53 pm


Visibility: 10 mi

Pressure: 29.93 "Hg

Humidity: 48%

Dew Point: 66 °F

Location of MarengoLocation

Past Weather in Marengo — Graph

°F

Marengo Temperature Yesterday

Maximum temperature yesterday: 95 °F (at 4:53 pm)
Minimum temperature yesterday: 71 °F (at 5:53 am)
Average temperature yesterday: 84 °F

High & Low Weather Summary for the Past Weeks

 TemperatureHumidityPressure
High95 °F (Aug 17, 4:53 pm)94% (Aug 5, 7:18 am)30.04 "Hg (Aug 5, 7:18 am)
Low64 °F (Aug 16, 6:53 am)38% (Aug 18, 6:53 pm)29.81 "Hg (Aug 13, 4:53 pm)
Average80 °F69%29.94 "Hg
* Reported Aug 3 7:53 pm — Aug 18 7:53 pm, Marengo. Weather by CustomWeather, © 2019

Note: Actual official high and low records may vary slightly from our data, if they occured in-between our weather recording intervals... More about our weather records

Advertising

Marengo Weather History for the Previous 24 Hours

Scroll right to see more
 ConditionsComfort  
Time TempWeatherWind HumidityBarometerVisibility
7:53 pm
Sun, Aug 18
91 °FClear.8 mph41%29.92 "Hg10 mi
6:53 pm94 °FSunny.8 mph38%29.93 "Hg10 mi
5:53 pm93 °FSunny.8 mph41%29.92 "Hg10 mi
4:53 pm93 °FSunny.8 mph41%29.92 "Hg10 mi
3:53 pm95 °FPassing clouds.No wind40%29.93 "Hg10 mi
2:53 pm93 °FSunny.3 mph41%29.97 "Hg10 mi
1:53 pm93 °FSunny.5 mph42%29.98 "Hg10 mi
12:53 pm93 °FSunny.13 mph42%29.99 "Hg10 mi
11:53 am90 °FSunny.6 mph48%29.99 "Hg10 mi
10:53 am88 °FSunny.6 mph55%29.98 "Hg10 mi
9:53 am84 °FSunny.No wind63%29.98 "Hg10 mi
8:53 am79 °FSunny.No wind74%29.98 "Hg10 mi
7:53 am74 °FSunny.3 mph85%29.97 "Hg10 mi
6:53 am72 °FSunny.No wind87%29.96 "Hg8 mi
5:53 am72 °FClear.No wind87%29.93 "Hg9 mi
4:53 am72 °FClear.No wind87%29.93 "Hg10 mi
3:53 am74 °FClear.No wind85%29.94 "Hg10 mi
2:53 am75 °FClear.No wind79%29.94 "Hg10 mi
1:53 am79 °FClear.No wind69%29.96 "Hg10 mi
12:53 am80 °FClear.No wind67%29.96 "Hg10 mi
11:53 pm
Sat, Aug 17
82 °FClear.9 mph65%29.94 "Hg10 mi
10:53 pm83 °FClear.7 mph65%29.96 "Hg10 mi
9:53 pm84 °FClear.5 mph63%29.94 "Hg10 mi
Weather by CustomWeather, © 2019

See weather overview